Year,Month,Day,Hour,Minute,Value (Times are PST for insolation in W/m^2)
2016,02,27,00,00,0.00
2016,02,27,00,01,0.00
2016,02,27,00,02,0.00
2016,02,27,00,03,0.00
2016,02,27,00,04,0.00
2016,02,27,00,05,0.00
2016,02,27,00,06,0.00
2016,02,27,00,07,0.00
2016,02,27,00,08,0.00
2016,02,27,00,09,0.00
2016,02,27,00,10,0.00
2016,02,27,00,11,0.00
2016,02,27,00,12,0.00
2016,02,27,00,13,0.00
2016,02,27,00,14,0.00
2016,02,27,00,15,0.00
2016,02,27,00,16,0.00
2016,02,27,00,17,0.00
2016,02,27,00,18,0.00
2016,02,27,00,19,0.00
2016,02,27,00,20,0.00
2016,02,27,00,21,0.00
2016,02,27,00,22,0.00
2016,02,27,00,23,0.00
2016,02,27,00,24,0.00
2016,02,27,00,25,0.00
2016,02,27,00,26,0.00
2016,02,27,00,27,0.00
2016,02,27,00,28,0.00
2016,02,27,00,29,0.00
2016,02,27,00,30,0.00
2016,02,27,00,31,0.00
2016,02,27,00,32,0.00
2016,02,27,00,33,0.00
2016,02,27,00,34,0.00
2016,02,27,00,35,0.00
2016,02,27,00,36,0.00
2016,02,27,00,37,0.00
2016,02,27,00,38,0.00
2016,02,27,00,39,0.00
2016,02,27,00,40,0.00
2016,02,27,00,41,0.00
2016,02,27,00,42,0.00
2016,02,27,00,43,0.00
2016,02,27,00,44,0.00
2016,02,27,00,45,0.00
2016,02,27,00,46,0.00
2016,02,27,00,47,0.00
2016,02,27,00,48,0.00
2016,02,27,00,49,0.00
2016,02,27,00,50,0.00
2016,02,27,00,51,0.00
2016,02,27,00,52,0.00
2016,02,27,00,53,0.00
2016,02,27,00,54,0.00
2016,02,27,00,55,0.00
2016,02,27,00,56,0.00
2016,02,27,00,57,0.00
2016,02,27,00,58,0.00
2016,02,27,00,59,0.00
2016,02,27,01,00,0.00
2016,02,27,01,01,0.00
2016,02,27,01,02,0.00
2016,02,27,01,03,0.00
2016,02,27,01,04,0.00
2016,02,27,01,05,0.00
2016,02,27,01,06,0.00
2016,02,27,01,07,0.00
2016,02,27,01,08,0.00
2016,02,27,01,09,0.00
2016,02,27,01,10,0.00
2016,02,27,01,11,0.00
2016,02,27,01,12,0.00
2016,02,27,01,13,0.00
2016,02,27,01,14,0.00
2016,02,27,01,15,0.00
2016,02,27,01,16,0.00
2016,02,27,01,17,0.00
2016,02,27,01,18,0.00
2016,02,27,01,19,0.00
2016,02,27,01,20,0.00
2016,02,27,01,21,0.00
2016,02,27,01,22,0.00
2016,02,27,01,23,0.00
2016,02,27,01,24,0.00
2016,02,27,01,25,0.00
2016,02,27,01,26,0.00
2016,02,27,01,27,0.00
2016,02,27,01,28,0.00
2016,02,27,01,29,0.00
2016,02,27,01,30,0.00
2016,02,27,01,31,0.00
2016,02,27,01,32,0.00
2016,02,27,01,33,0.00
2016,02,27,01,34,0.00
2016,02,27,01,35,0.00
2016,02,27,01,36,0.00
2016,02,27,01,37,0.00
2016,02,27,01,38,0.00
2016,02,27,01,39,0.00
2016,02,27,01,40,0.00
2016,02,27,01,41,0.00
2016,02,27,01,42,0.00
2016,02,27,01,43,0.00
2016,02,27,01,44,0.00
2016,02,27,01,45,0.00
2016,02,27,01,46,0.00
2016,02,27,01,47,0.00
2016,02,27,01,48,0.00
2016,02,27,01,49,0.00
2016,02,27,01,50,0.00
2016,02,27,01,51,0.00
2016,02,27,01,52,0.00
2016,02,27,01,53,0.00
2016,02,27,01,54,0.00
2016,02,27,01,55,0.00
2016,02,27,01,56,0.00
2016,02,27,01,57,0.00
2016,02,27,01,58,0.00
2016,02,27,01,59,0.00
2016,02,27,02,00,0.00
2016,02,27,02,01,0.00
2016,02,27,02,02,0.00
2016,02,27,02,03,0.00
2016,02,27,02,04,0.00
2016,02,27,02,05,0.00
2016,02,27,02,06,0.00
2016,02,27,02,07,0.00
2016,02,27,02,08,0.00
2016,02,27,02,09,0.00
2016,02,27,02,10,0.00
2016,02,27,02,11,0.00
2016,02,27,02,12,0.00
2016,02,27,02,13,0.00
2016,02,27,02,14,0.00
2016,02,27,02,15,0.00
2016,02,27,02,16,0.00
2016,02,27,02,17,0.00
2016,02,27,02,18,0.00
2016,02,27,02,19,0.00
2016,02,27,02,20,0.00
2016,02,27,02,21,0.00
2016,02,27,02,22,0.00
2016,02,27,02,23,0.00
2016,02,27,02,24,0.00
2016,02,27,02,25,0.00
2016,02,27,02,26,0.00
2016,02,27,02,27,0.00
2016,02,27,02,28,0.00
2016,02,27,02,29,0.00
2016,02,27,02,30,0.00
2016,02,27,02,31,0.00
2016,02,27,02,32,0.00
2016,02,27,02,33,0.00
2016,02,27,02,34,0.00
2016,02,27,02,35,0.00
2016,02,27,02,36,0.00
2016,02,27,02,37,0.00
2016,02,27,02,38,0.00
2016,02,27,02,39,0.00
2016,02,27,02,40,0.00
2016,02,27,02,41,0.00
2016,02,27,02,42,0.00
2016,02,27,02,43,0.00
2016,02,27,02,44,0.00
2016,02,27,02,45,0.00
2016,02,27,02,46,0.00
2016,02,27,02,47,0.00
2016,02,27,02,48,0.00
2016,02,27,02,49,0.00
2016,02,27,02,50,0.00
2016,02,27,02,51,0.00
2016,02,27,02,52,0.00
2016,02,27,02,53,0.00
2016,02,27,02,54,0.00
2016,02,27,02,55,0.00
2016,02,27,02,56,0.00
2016,02,27,02,57,0.00
2016,02,27,02,58,0.00
2016,02,27,02,59,0.00
2016,02,27,03,00,0.00
2016,02,27,03,01,0.00
2016,02,27,03,02,0.00
2016,02,27,03,03,0.00
2016,02,27,03,04,0.00
2016,02,27,03,05,0.00
2016,02,27,03,06,0.00
2016,02,27,03,07,0.00
2016,02,27,03,08,0.00
2016,02,27,03,09,0.00
2016,02,27,03,10,0.00
2016,02,27,03,11,0.00
2016,02,27,03,12,0.00
2016,02,27,03,13,0.00
2016,02,27,03,14,0.00
2016,02,27,03,15,0.00
2016,02,27,03,16,0.00
2016,02,27,03,17,0.00
2016,02,27,03,18,0.00
2016,02,27,03,19,0.00
2016,02,27,03,20,0.00
2016,02,27,03,21,0.00
2016,02,27,03,22,0.00
2016,02,27,03,23,0.00
2016,02,27,03,24,0.00
2016,02,27,03,25,0.00
2016,02,27,03,26,0.00
2016,02,27,03,27,0.00
2016,02,27,03,28,0.00
2016,02,27,03,29,0.00
2016,02,27,03,30,0.00
2016,02,27,03,31,0.00
2016,02,27,03,32,0.00
2016,02,27,03,33,0.00
2016,02,27,03,34,0.00
2016,02,27,03,35,0.00
2016,02,27,03,36,0.00
2016,02,27,03,37,0.00
2016,02,27,03,38,0.00
2016,02,27,03,39,0.00
2016,02,27,03,40,0.00
2016,02,27,03,41,0.00
2016,02,27,03,42,0.00
2016,02,27,03,43,0.00
2016,02,27,03,44,0.00
2016,02,27,03,45,0.00
2016,02,27,03,46,0.00
2016,02,27,03,47,0.00
2016,02,27,03,48,0.00
2016,02,27,03,49,0.00
2016,02,27,03,50,0.00
2016,02,27,03,51,0.00
2016,02,27,03,52,0.00
2016,02,27,03,53,0.00
2016,02,27,03,54,0.00
2016,02,27,03,55,0.00
2016,02,27,03,56,0.00
2016,02,27,03,57,0.00
2016,02,27,03,58,0.00
2016,02,27,03,59,0.00
2016,02,27,04,00,0.00
2016,02,27,04,01,0.00
2016,02,27,04,02,0.00
2016,02,27,04,03,0.00
2016,02,27,04,04,0.00
2016,02,27,04,05,0.00
2016,02,27,04,06,0.00
2016,02,27,04,07,0.00
2016,02,27,04,08,0.00
2016,02,27,04,09,0.00
2016,02,27,04,10,0.00
2016,02,27,04,11,0.00
2016,02,27,04,12,0.00
2016,02,27,04,13,0.00
2016,02,27,04,14,0.00
2016,02,27,04,15,0.00
2016,02,27,04,16,0.00
2016,02,27,04,17,0.00
2016,02,27,04,18,0.00
2016,02,27,04,19,0.00
2016,02,27,04,20,0.00
2016,02,27,04,21,0.00
2016,02,27,04,22,0.00
2016,02,27,04,23,0.00
2016,02,27,04,24,0.00
2016,02,27,04,25,0.00
2016,02,27,04,26,0.00
2016,02,27,04,27,0.00
2016,02,27,04,28,0.00
2016,02,27,04,29,0.00
2016,02,27,04,30,0.00
2016,02,27,04,31,0.00
2016,02,27,04,32,0.00
2016,02,27,04,33,0.00
2016,02,27,04,34,0.00
2016,02,27,04,35,0.00
2016,02,27,04,36,0.00
2016,02,27,04,37,0.00
2016,02,27,04,38,0.00
2016,02,27,04,39,0.00
2016,02,27,04,40,0.00
2016,02,27,04,41,0.00
2016,02,27,04,42,0.00
2016,02,27,04,43,0.00
2016,02,27,04,44,0.00
2016,02,27,04,45,0.00
2016,02,27,04,46,0.00
2016,02,27,04,47,0.00
2016,02,27,04,48,0.00
2016,02,27,04,49,0.00
2016,02,27,04,50,0.00
2016,02,27,04,51,0.00
2016,02,27,04,52,0.00
2016,02,27,04,53,0.00
2016,02,27,04,54,0.00
2016,02,27,04,55,0.00
2016,02,27,04,56,0.00
2016,02,27,04,57,0.00
2016,02,27,04,58,0.00
2016,02,27,04,59,0.00
2016,02,27,05,00,0.00
2016,02,27,05,01,0.00
2016,02,27,05,02,0.00
2016,02,27,05,03,0.00
2016,02,27,05,04,0.00
2016,02,27,05,05,0.00
2016,02,27,05,06,0.00
2016,02,27,05,07,0.00
2016,02,27,05,08,0.00
2016,02,27,05,09,0.00
2016,02,27,05,10,0.00
2016,02,27,05,11,0.00
2016,02,27,05,12,0.00
2016,02,27,05,13,0.00
2016,02,27,05,14,0.00
2016,02,27,05,15,0.00
2016,02,27,05,16,0.00
2016,02,27,05,17,0.00
2016,02,27,05,18,0.00
2016,02,27,05,19,0.00
2016,02,27,05,20,0.00
2016,02,27,05,21,0.00
2016,02,27,05,22,0.00
2016,02,27,05,23,0.00
2016,02,27,05,24,0.00
2016,02,27,05,25,0.00
2016,02,27,05,26,0.00
2016,02,27,05,27,0.00
2016,02,27,05,28,0.00
2016,02,27,05,29,0.00
2016,02,27,05,30,0.00
2016,02,27,05,31,0.00
2016,02,27,05,32,0.00
2016,02,27,05,33,0.00
2016,02,27,05,34,0.00
2016,02,27,05,35,0.00
2016,02,27,05,36,0.00
2016,02,27,05,37,0.00
2016,02,27,05,38,0.00
2016,02,27,05,39,0.00
2016,02,27,05,40,0.00
2016,02,27,05,41,0.00
2016,02,27,05,42,0.00
2016,02,27,05,43,0.00
2016,02,27,05,44,0.00
2016,02,27,05,45,0.00
2016,02,27,05,46,0.00
2016,02,27,05,47,0.00
2016,02,27,05,48,0.00
2016,02,27,05,49,0.00
2016,02,27,05,50,0.00
2016,02,27,05,51,0.00
2016,02,27,05,52,0.00
2016,02,27,05,53,0.00
2016,02,27,05,54,0.00
2016,02,27,05,55,0.00
2016,02,27,05,56,0.00
2016,02,27,05,57,0.00
2016,02,27,05,58,0.00
2016,02,27,05,59,0.00
2016,02,27,06,00,0.00
2016,02,27,06,01,0.00
2016,02,27,06,02,0.00
2016,02,27,06,03,0.00
2016,02,27,06,04,0.00
2016,02,27,06,05,0.00
2016,02,27,06,06,0.00
2016,02,27,06,07,0.00
2016,02,27,06,08,0.00
2016,02,27,06,09,0.00
2016,02,27,06,10,0.00
2016,02,27,06,11,0.00
2016,02,27,06,12,0.00
2016,02,27,06,13,0.00
2016,02,27,06,14,0.00
2016,02,27,06,15,0.00
2016,02,27,06,16,0.00
2016,02,27,06,17,0.00
2016,02,27,06,18,0.00
2016,02,27,06,19,0.00
2016,02,27,06,20,0.00
2016,02,27,06,21,0.00
2016,02,27,06,22,0.00
2016,02,27,06,23,0.00
2016,02,27,06,24,0.00
2016,02,27,06,25,0.00
2016,02,27,06,26,0.00
2016,02,27,06,27,0.00
2016,02,27,06,28,0.00
2016,02,27,06,29,0.00
2016,02,27,06,30,0.00
2016,02,27,06,31,0.00
2016,02,27,06,32,0.00
2016,02,27,06,33,0.00
2016,02,27,06,34,0.00
2016,02,27,06,35,0.00
2016,02,27,06,36,0.00
2016,02,27,06,37,0.00
2016,02,27,06,38,0.00
2016,02,27,06,39,0.00
2016,02,27,06,40,0.00
2016,02,27,06,41,0.00
2016,02,27,06,42,0.00
2016,02,27,06,43,0.00
2016,02,27,06,44,0.00
2016,02,27,06,45,0.00
2016,02,27,06,46,0.00
2016,02,27,06,47,0.00
2016,02,27,06,48,0.00
2016,02,27,06,49,0.00
2016,02,27,06,50,0.00
2016,02,27,06,51,0.00
2016,02,27,06,52,0.00
2016,02,27,06,53,0.00
2016,02,27,06,54,0.00
2016,02,27,06,55,0.00
2016,02,27,06,56,0.00
2016,02,27,06,57,0.00
2016,02,27,06,58,0.00
2016,02,27,06,59,0.00
2016,02,27,07,00,0.00
2016,02,27,07,01,0.00
2016,02,27,07,02,0.00
2016,02,27,07,03,0.00
2016,02,27,07,04,0.00
2016,02,27,07,05,0.00
2016,02,27,07,06,0.90
2016,02,27,07,07,5.00
2016,02,27,07,08,5.00
2016,02,27,07,09,5.00
2016,02,27,07,10,5.00
2016,02,27,07,11,5.00
2016,02,27,07,12,5.00
2016,02,27,07,13,5.00
2016,02,27,07,14,5.00
2016,02,27,07,15,5.00
2016,02,27,07,16,5.00
2016,02,27,07,17,5.00
2016,02,27,07,18,5.00
2016,02,27,07,19,5.00
2016,02,27,07,20,5.00
2016,02,27,07,21,5.00
2016,02,27,07,22,5.00
2016,02,27,07,23,5.00
2016,02,27,07,24,5.50
2016,02,27,07,25,7.00
2016,02,27,07,26,7.00
2016,02,27,07,27,7.00
2016,02,27,07,28,8.60
2016,02,27,07,29,9.00
2016,02,27,07,30,9.00
2016,02,27,07,31,9.80
2016,02,27,07,32,11.00
2016,02,27,07,33,11.00
2016,02,27,07,34,11.00
2016,02,27,07,35,11.10
2016,02,27,07,36,12.00
2016,02,27,07,37,12.80
2016,02,27,07,38,14.00
2016,02,27,07,39,14.00
2016,02,27,07,40,15.70
2016,02,27,07,41,16.00
2016,02,27,07,42,16.60
2016,02,27,07,43,18.00
2016,02,27,07,44,18.00
2016,02,27,07,45,18.70
2016,02,27,07,46,19.00
2016,02,27,07,47,19.00
2016,02,27,07,48,19.60
2016,02,27,07,49,21.00
2016,02,27,07,50,22.20
2016,02,27,07,51,23.00
2016,02,27,07,52,24.70
2016,02,27,07,53,25.00
2016,02,27,07,54,25.30
2016,02,27,07,55,26.00
2016,02,27,07,56,27.30
2016,02,27,07,57,28.00
2016,02,27,07,58,29.80
2016,02,27,07,59,30.00
2016,02,27,08,00,30.60
2016,02,27,08,01,32.00
2016,02,27,08,02,32.00
2016,02,27,08,03,32.00
2016,02,27,08,04,32.00
2016,02,27,08,05,32.00
2016,02,27,08,06,32.40
2016,02,27,08,07,33.00
2016,02,27,08,08,33.00
2016,02,27,08,09,34.50
2016,02,27,08,10,35.00
2016,02,27,08,11,35.00
2016,02,27,08,12,35.00
2016,02,27,08,13,36.00
2016,02,27,08,14,37.00
2016,02,27,08,15,37.00
2016,02,27,08,16,39.00
2016,02,27,08,17,39.00
2016,02,27,08,18,39.00
2016,02,27,08,19,39.00
2016,02,27,08,20,39.00
2016,02,27,08,21,39.80
2016,02,27,08,22,42.00
2016,02,27,08,23,42.50
2016,02,27,08,24,44.80
2016,02,27,08,25,46.00
2016,02,27,08,26,46.00
2016,02,27,08,27,46.00
2016,02,27,08,28,47.00
2016,02,27,08,29,47.00
2016,02,27,08,30,47.00
2016,02,27,08,31,48.10
2016,02,27,08,32,49.00
2016,02,27,08,33,48.90
2016,02,27,08,34,47.00
2016,02,27,08,35,47.00
2016,02,27,08,36,47.00
2016,02,27,08,37,47.00
2016,02,27,08,38,48.60
2016,02,27,08,39,49.10
2016,02,27,08,40,51.50
2016,02,27,08,41,53.40
2016,02,27,08,42,55.10
2016,02,27,08,43,57.30
2016,02,27,08,44,61.20
2016,02,27,08,45,62.00
2016,02,27,08,46,62.00
2016,02,27,08,47,62.00
2016,02,27,08,48,62.00
2016,02,27,08,49,62.70
2016,02,27,08,50,63.00
2016,02,27,08,51,63.00
2016,02,27,08,52,63.50
2016,02,27,08,53,65.80
2016,02,27,08,54,67.00
2016,02,27,08,55,65.60
2016,02,27,08,56,63.30
2016,02,27,08,57,63.00
2016,02,27,08,58,63.60
2016,02,27,08,59,65.90
2016,02,27,09,00,68.10
2016,02,27,09,01,69.70
2016,02,27,09,02,71.70
2016,02,27,09,03,72.30
2016,02,27,09,04,74.00
2016,02,27,09,05,74.90
2016,02,27,09,06,76.50
2016,02,27,09,07,78.40
2016,02,27,09,08,82.60
2016,02,27,09,09,86.70
2016,02,27,09,10,91.60
2016,02,27,09,11,96.30
2016,02,27,09,12,100.40
2016,02,27,09,13,103.50
2016,02,27,09,14,102.40
2016,02,27,09,15,104.20
2016,02,27,09,16,104.60
2016,02,27,09,17,104.00
2016,02,27,09,18,104.60
2016,02,27,09,19,105.00
2016,02,27,09,20,105.20
2016,02,27,09,21,107.00
2016,02,27,09,22,107.00
2016,02,27,09,23,108.00
2016,02,27,09,24,109.00
2016,02,27,09,25,109.00
2016,02,27,09,26,109.00
2016,02,27,09,27,108.20
2016,02,27,09,28,104.70
2016,02,27,09,29,103.00
2016,02,27,09,30,100.70
2016,02,27,09,31,100.00
2016,02,27,09,32,98.10
2016,02,27,09,33,97.80
2016,02,27,09,34,97.00
2016,02,27,09,35,97.00
2016,02,27,09,36,97.00
2016,02,27,09,37,97.00
2016,02,27,09,38,97.40
2016,02,27,09,39,100.50
2016,02,27,09,40,102.80
2016,02,27,09,41,105.70
2016,02,27,09,42,104.80
2016,02,27,09,43,104.90
2016,02,27,09,44,107.30
2016,02,27,09,45,110.30
2016,02,27,09,46,113.50
2016,02,27,09,47,115.10
2016,02,27,09,48,114.60
2016,02,27,09,49,115.90
2016,02,27,09,50,121.00
2016,02,27,09,51,127.90
2016,02,27,09,52,138.60
2016,02,27,09,53,146.90
2016,02,27,09,54,143.20
2016,02,27,09,55,137.40
2016,02,27,09,56,132.90
2016,02,27,09,57,128.00
2016,02,27,09,58,129.90
2016,02,27,09,59,133.30
2016,02,27,10,00,131.00
2016,02,27,10,01,128.30
2016,02,27,10,02,130.90
2016,02,27,10,03,135.80
2016,02,27,10,04,141.40
2016,02,27,10,05,146.60
2016,02,27,10,06,148.80
2016,02,27,10,07,149.00
2016,02,27,10,08,149.00
2016,02,27,10,09,149.00
2016,02,27,10,10,149.00
2016,02,27,10,11,149.00
2016,02,27,10,12,148.20
2016,02,27,10,13,147.70
2016,02,27,10,14,146.00
2016,02,27,10,15,146.90
2016,02,27,10,16,148.00
2016,02,27,10,17,148.00
2016,02,27,10,18,148.90
2016,02,27,10,19,149.00
2016,02,27,10,20,149.00
2016,02,27,10,21,148.60
2016,02,27,10,22,145.60
2016,02,27,10,23,142.60
2016,02,27,10,24,141.20
2016,02,27,10,25,131.70
2016,02,27,10,26,127.00
2016,02,27,10,27,126.20
2016,02,27,10,28,125.00
2016,02,27,10,29,131.40
2016,02,27,10,30,155.50
2016,02,27,10,31,174.60
2016,02,27,10,32,168.40
2016,02,27,10,33,172.00
2016,02,27,10,34,288.50
2016,02,27,10,35,321.50
2016,02,27,10,36,301.90
2016,02,27,10,37,308.60
2016,02,27,10,38,341.30
2016,02,27,10,39,307.50
2016,02,27,10,40,267.60
2016,02,27,10,41,282.30
2016,02,27,10,42,325.10
2016,02,27,10,43,327.00
2016,02,27,10,44,313.50
2016,02,27,10,45,306.00
2016,02,27,10,46,336.20
2016,02,27,10,47,320.00
2016,02,27,10,48,273.90
2016,02,27,10,49,277.10
2016,02,27,10,50,283.90
2016,02,27,10,51,336.90
2016,02,27,10,52,417.30
2016,02,27,10,53,502.00
2016,02,27,10,54,495.50
2016,02,27,10,55,352.00
2016,02,27,10,56,321.10
2016,02,27,10,57,273.20
2016,02,27,10,58,271.60
2016,02,27,10,59,269.00
2016,02,27,11,00,408.60
2016,02,27,11,01,327.70
2016,02,27,11,02,299.10
2016,02,27,11,03,330.00
2016,02,27,11,04,410.00
2016,02,27,11,05,404.60
2016,02,27,11,06,467.40
2016,02,27,11,07,457.00
2016,02,27,11,08,390.60
2016,02,27,11,09,302.00
2016,02,27,11,10,366.30
2016,02,27,11,11,372.90
2016,02,27,11,12,341.30
2016,02,27,11,13,421.90
2016,02,27,11,14,436.50
2016,02,27,11,15,420.40
2016,02,27,11,16,400.60
2016,02,27,11,17,412.90
2016,02,27,11,18,402.50
2016,02,27,11,19,385.70
2016,02,27,11,20,384.80
2016,02,27,11,21,373.60
2016,02,27,11,22,310.40
2016,02,27,11,23,345.30
2016,02,27,11,24,328.00
2016,02,27,11,25,371.70
2016,02,27,11,26,357.00
2016,02,27,11,27,336.90
2016,02,27,11,28,324.40
2016,02,27,11,29,319.20
2016,02,27,11,30,326.40
2016,02,27,11,31,356.50
2016,02,27,11,32,415.00
2016,02,27,11,33,445.70
2016,02,27,11,34,450.40
2016,02,27,11,35,429.90
2016,02,27,11,36,407.20
2016,02,27,11,37,386.00
2016,02,27,11,38,380.50
2016,02,27,11,39,383.60
2016,02,27,11,40,437.50
2016,02,27,11,41,454.00
2016,02,27,11,42,452.90
2016,02,27,11,43,449.60
2016,02,27,11,44,424.00
2016,02,27,11,45,447.00
2016,02,27,11,46,406.60
2016,02,27,11,47,462.80
2016,02,27,11,48,458.80
2016,02,27,11,49,428.80
2016,02,27,11,50,429.90
2016,02,27,11,51,430.80
2016,02,27,11,52,378.00
2016,02,27,11,53,353.00
2016,02,27,11,54,305.00
2016,02,27,11,55,291.80
2016,02,27,11,56,305.20
2016,02,27,11,57,305.70
2016,02,27,11,58,299.40
2016,02,27,11,59,297.40
2016,02,27,12,00,276.80
2016,02,27,12,01,272.50
2016,02,27,12,02,263.90
2016,02,27,12,03,259.20
2016,02,27,12,04,257.50
2016,02,27,12,05,260.90
2016,02,27,12,06,270.50
2016,02,27,12,07,275.00
2016,02,27,12,08,270.80
2016,02,27,12,09,280.80
2016,02,27,12,10,304.00
2016,02,27,12,11,296.80
2016,02,27,12,12,304.20
2016,02,27,12,13,298.00
2016,02,27,12,14,279.10
2016,02,27,12,15,274.00
2016,02,27,12,16,274.20
2016,02,27,12,17,277.70
2016,02,27,12,18,284.80
2016,02,27,12,19,298.20
2016,02,27,12,20,303.10
2016,02,27,12,21,307.00
2016,02,27,12,22,319.70
2016,02,27,12,23,322.30
2016,02,27,12,24,325.90
2016,02,27,12,25,340.60
2016,02,27,12,26,369.80
2016,02,27,12,27,374.90
2016,02,27,12,28,364.90
2016,02,27,12,29,395.70
2016,02,27,12,30,406.10
2016,02,27,12,31,446.60
2016,02,27,12,32,475.20
2016,02,27,12,33,530.60
2016,02,27,12,34,575.30
2016,02,27,12,35,569.80
2016,02,27,12,36,503.00
2016,02,27,12,37,632.40
2016,02,27,12,38,703.20
2016,02,27,12,39,687.90
2016,02,27,12,40,679.00
2016,02,27,12,41,679.00
2016,02,27,12,42,679.00
2016,02,27,12,43,679.00
2016,02,27,12,44,557.80
2016,02,27,12,45,515.00
2016,02,27,12,46,521.80
2016,02,27,12,47,521.40
2016,02,27,12,48,472.00
2016,02,27,12,49,461.00
2016,02,27,12,50,461.00
2016,02,27,12,51,294.60
2016,02,27,12,52,287.00
2016,02,27,12,53,447.00
2016,02,27,12,54,725.00
2016,02,27,12,55,740.00
2016,02,27,12,56,740.00
2016,02,27,12,57,726.90
2016,02,27,12,58,699.80
2016,02,27,12,59,692.40
2016,02,27,13,00,669.80
2016,02,27,13,01,585.80
2016,02,27,13,02,532.40
2016,02,27,13,03,619.50
2016,02,27,13,04,638.50
2016,02,27,13,05,654.60
2016,02,27,13,06,657.80
2016,02,27,13,07,650.00
2016,02,27,13,08,496.30
2016,02,27,13,09,421.20
2016,02,27,13,10,408.00
2016,02,27,13,11,350.00
2016,02,27,13,12,338.40
2016,02,27,13,13,333.70
2016,02,27,13,14,374.60
2016,02,27,13,15,478.00
2016,02,27,13,16,478.00
2016,02,27,13,17,503.20
2016,02,27,13,18,577.40
2016,02,27,13,19,547.80
2016,02,27,13,20,515.00
2016,02,27,13,21,285.00
2016,02,27,13,22,285.00
2016,02,27,13,23,285.00
2016,02,27,13,24,538.90
2016,02,27,13,25,713.40
2016,02,27,13,26,703.30
2016,02,27,13,27,300.70
2016,02,27,13,28,337.10
2016,02,27,13,29,318.30
2016,02,27,13,30,278.70
2016,02,27,13,31,264.70
2016,02,27,13,32,251.40
2016,02,27,13,33,243.00
2016,02,27,13,34,237.90
2016,02,27,13,35,270.00
2016,02,27,13,36,265.70
2016,02,27,13,37,230.80
2016,02,27,13,38,216.30
2016,02,27,13,39,212.80
2016,02,27,13,40,206.10
2016,02,27,13,41,202.00
2016,02,27,13,42,216.00
2016,02,27,13,43,215.60
2016,02,27,13,44,227.30
2016,02,27,13,45,270.30
2016,02,27,13,46,343.00
2016,02,27,13,47,343.00
2016,02,27,13,48,313.70
2016,02,27,13,49,275.20
2016,02,27,13,50,282.40
2016,02,27,13,51,301.50
2016,02,27,13,52,317.00
2016,02,27,13,53,283.40
2016,02,27,13,54,257.00
2016,02,27,13,55,228.50
2016,02,27,13,56,273.50
2016,02,27,13,57,484.60
2016,02,27,13,58,437.00
2016,02,27,13,59,457.00
2016,02,27,14,00,486.40
2016,02,27,14,01,480.80
2016,02,27,14,02,433.80
2016,02,27,14,03,409.70
2016,02,27,14,04,392.00
2016,02,27,14,05,365.30
2016,02,27,14,06,385.00
2016,02,27,14,07,368.20
2016,02,27,14,08,347.20
2016,02,27,14,09,355.00
2016,02,27,14,10,296.20
2016,02,27,14,11,297.20
2016,02,27,14,12,261.10
2016,02,27,14,13,318.70
2016,02,27,14,14,362.00
2016,02,27,14,15,378.50
2016,02,27,14,16,435.50
2016,02,27,14,17,445.70
2016,02,27,14,18,445.50
2016,02,27,14,19,436.40
2016,02,27,14,20,380.90
2016,02,27,14,21,234.00
2016,02,27,14,22,344.50
2016,02,27,14,23,436.70
2016,02,27,14,24,436.00
2016,02,27,14,25,279.70
2016,02,27,14,26,237.00
2016,02,27,14,27,277.40
2016,02,27,14,28,322.00
2016,02,27,14,29,290.20
2016,02,27,14,30,281.70
2016,02,27,14,31,267.50
2016,02,27,14,32,271.00
2016,02,27,14,33,319.70
2016,02,27,14,34,391.00
2016,02,27,14,35,403.50
2016,02,27,14,36,434.50
2016,02,27,14,37,420.90
2016,02,27,14,38,434.00
2016,02,27,14,39,344.00
2016,02,27,14,40,284.50
2016,02,27,14,41,350.50
2016,02,27,14,42,356.60
2016,02,27,14,43,332.90
2016,02,27,14,44,259.10
2016,02,27,14,45,220.00
2016,02,27,14,46,232.40
2016,02,27,14,47,232.50
2016,02,27,14,48,210.20
2016,02,27,14,49,197.70
2016,02,27,14,50,190.10
2016,02,27,14,51,192.50
2016,02,27,14,52,212.60
2016,02,27,14,53,235.70
2016,02,27,14,54,260.80
2016,02,27,14,55,295.00
2016,02,27,14,56,251.00
2016,02,27,14,57,321.20
2016,02,27,14,58,373.30
2016,02,27,14,59,384.30
2016,02,27,15,00,360.30
2016,02,27,15,01,340.50
2016,02,27,15,02,337.80
2016,02,27,15,03,336.00
2016,02,27,15,04,336.00
2016,02,27,15,05,433.50
2016,02,27,15,06,371.00
2016,02,27,15,07,397.50
2016,02,27,15,08,436.70
2016,02,27,15,09,383.60
2016,02,27,15,10,344.50
2016,02,27,15,11,299.60
2016,02,27,15,12,371.70
2016,02,27,15,13,330.00
2016,02,27,15,14,320.50
2016,02,27,15,15,283.00
2016,02,27,15,16,241.40
2016,02,27,15,17,186.50
2016,02,27,15,18,221.80
2016,02,27,15,19,284.40
2016,02,27,15,20,326.50
2016,02,27,15,21,352.10
2016,02,27,15,22,307.30
2016,02,27,15,23,268.50
2016,02,27,15,24,340.50
2016,02,27,15,25,353.90
2016,02,27,15,26,360.00
2016,02,27,15,27,316.10
2016,02,27,15,28,312.80
2016,02,27,15,29,272.40
2016,02,27,15,30,294.00
2016,02,27,15,31,294.00
2016,02,27,15,32,299.00
2016,02,27,15,33,304.00
2016,02,27,15,34,304.00
2016,02,27,15,35,264.00
2016,02,27,15,36,318.00
2016,02,27,15,37,318.00
2016,02,27,15,38,354.00
2016,02,27,15,39,382.20
2016,02,27,15,40,368.50
2016,02,27,15,41,364.00
2016,02,27,15,42,387.00
2016,02,27,15,43,387.40
2016,02,27,15,44,383.80
2016,02,27,15,45,386.80
2016,02,27,15,46,391.70
2016,02,27,15,47,388.20
2016,02,27,15,48,372.80
2016,02,27,15,49,358.10
2016,02,27,15,50,349.40
2016,02,27,15,51,343.00
2016,02,27,15,52,277.90
2016,02,27,15,53,269.50
2016,02,27,15,54,274.00
2016,02,27,15,55,303.80
2016,02,27,15,56,293.40
2016,02,27,15,57,260.90
2016,02,27,15,58,238.40
2016,02,27,15,59,227.30
2016,02,27,16,00,220.90
2016,02,27,16,01,217.50
2016,02,27,16,02,216.30
2016,02,27,16,03,210.00
2016,02,27,16,04,198.60
2016,02,27,16,05,151.30
2016,02,27,16,06,132.40
2016,02,27,16,07,135.50
2016,02,27,16,08,125.70
2016,02,27,16,09,114.80
2016,02,27,16,10,94.70
2016,02,27,16,11,90.20
2016,02,27,16,12,93.30
2016,02,27,16,13,97.50
2016,02,27,16,14,99.30
2016,02,27,16,15,103.90
2016,02,27,16,16,118.30
2016,02,27,16,17,128.00
2016,02,27,16,18,130.50
2016,02,27,16,19,134.00
2016,02,27,16,20,129.30
2016,02,27,16,21,122.40
2016,02,27,16,22,127.70
2016,02,27,16,23,127.30
2016,02,27,16,24,123.50
2016,02,27,16,25,123.20
2016,02,27,16,26,123.70
2016,02,27,16,27,118.90
2016,02,27,16,28,118.00
2016,02,27,16,29,118.50
2016,02,27,16,30,120.00
2016,02,27,16,31,120.00
2016,02,27,16,32,118.60
2016,02,27,16,33,118.00
2016,02,27,16,34,115.70
2016,02,27,16,35,114.00
2016,02,27,16,36,113.50
2016,02,27,16,37,111.80
2016,02,27,16,38,109.50
2016,02,27,16,39,105.30
2016,02,27,16,40,103.70
2016,02,27,16,41,100.70
2016,02,27,16,42,97.50
2016,02,27,16,43,95.70
2016,02,27,16,44,91.90
2016,02,27,16,45,88.10
2016,02,27,16,46,83.50
2016,02,27,16,47,79.70
2016,02,27,16,48,75.60
2016,02,27,16,49,71.60
2016,02,27,16,50,67.70
2016,02,27,16,51,63.30
2016,02,27,16,52,61.10
2016,02,27,16,53,57.30
2016,02,27,16,54,55.00
2016,02,27,16,55,53.40
2016,02,27,16,56,53.00
2016,02,27,16,57,51.20
2016,02,27,16,58,50.60
2016,02,27,16,59,49.80
2016,02,27,17,00,52.00
2016,02,27,17,01,53.70
2016,02,27,17,02,54.00
2016,02,27,17,03,55.90
2016,02,27,17,04,56.50
2016,02,27,17,05,58.00
2016,02,27,17,06,59.00
2016,02,27,17,07,58.60
2016,02,27,17,08,56.30
2016,02,27,17,09,52.40
2016,02,27,17,10,48.20
2016,02,27,17,11,44.20
2016,02,27,17,12,40.90
2016,02,27,17,13,39.30
2016,02,27,17,14,37.30
2016,02,27,17,15,34.80
2016,02,27,17,16,32.70
2016,02,27,17,17,31.20
2016,02,27,17,18,30.00
2016,02,27,17,19,30.00